Regional Weather Roundup
Issued by NWS

Home | Current Version | Previous Version | Graphics & Text | Print | Product List | Glossary On
Versions: 1 2 3 4 5 6 7 8 9 10 11 12 13 14 15 16 17 18 19 20 21 22 23 24 25 26 27 28 29 30 31 32 33 34 35 36 37 38 39 40 41 42 43 44 45 46 47 48 49 50
000
ASUS44 KMEG 211910
RWRTN
TENNESSEE HOURLY STATE WEATHER ROUNDUP
NATIONAL WEATHER SERVICE MEMPHIS TN
200 PM CDT MON MAY 21 2018

TNZ002-004-019-021-049-052-054-088>092-212000-
WEST TENNESSEE

CITY           SKY/WX    TMP DP  RH WIND       PRES   REMARKS
MEMPHIS INTL   CLOUDY    78  70  76 S9        30.06F
NWS MEMPHIS      N/A     77 N/A N/A MISG        N/A
JACKSON        CLOUDY    80  72  76 S7        30.07F
DYERSBURG      PTSUNNY   82  71  69 S8        30.07F
COVINGTON      MOSUNNY   81  72  74 SE9       30.06F
BOLIVAR        CLOUDY    77  70  78 SE8       30.08S
PARIS          PTSUNNY   79  72  78 CALM      30.07F
HUNTINGDON     MOSUNNY   82  70  65 S8G16     30.06F
LEXINGTON      MOSUNNY   82  70  65 VRB6      30.07F
SELMER         PTSUNNY   81  70  69 S8        30.07F
SAVANNAH       MOSUNNY   82  70  65 S8        30.06F
$$

TNZ008-025-027-028-033-062-065-066-212000-
NORTH MIDDLE TENNESSEE

CITY           SKY/WX    TMP DP  RH WIND       PRES   REMARKS
NASHVILLE      PTSUNNY   85  68  56 E9        30.07F
DICKSON        PTCLDY    81  68  65 VRB7G20   30.08F
PORTLAND       PTSUNNY   82  68  61 VRB3      30.08F
CLARKSVILLE    PTSUNNY   81  67  62 S7        30.07F
SMYRNA         PTSUNNY   83  67  58 S13       30.08F
MURFREESBORO   PTCLDY    84  64  51 S6G16     30.06F
COOKEVILLE     MOSUNNY   84  64  51 S9        30.10F
LIVINGSTON     CLEAR     82  64  54 SW7       30.11F
GALLATIN       MOSUNNY   84  70  61 VRB5      30.10F
CROSSVILLE     FAIR      78  61  55 VRB6      30.16F
$$

TNZ061-075-076-078-094-096-097-212000-
SOUTH MIDDLE TENNESSEE

CITY           SKY/WX    TMP DP  RH WIND       PRES   REMARKS
LEWISBURG      PTCLDY    82  64  54 S8G16     30.08F
FAYETTEVILLE   MOSUNNY   81  64  57 SE10      30.10F
TULLAHOMA      MOSUNNY   81  64  57 SE6G16    30.10F
WINCHESTER     MOSUNNY   82  61  47 S12       30.11F
MCMINNVILLE    PTSUNNY   82  64  54 SW7G14    30.10F
COLUMBIA       MOSUNNY   84  66  54 SE8       30.06F
SHELBYVILLE    MOSUNNY   82  66  57 S7        30.09F
$$

TNZ017-018-042-046-047-212000-
NORTHEAST TENNESSEE

CITY           SKY/WX    TMP DP  RH WIND       PRES   REMARKS
TRI CITIES     LGT RAIN  77  71  82 SE7       30.14F
ELIZABETHTON   FAIR      72  66  83 VRB7      30.17F
GREENEVILLE    CLOUDY    79  66  65 NW6       30.13F
$$

TNZ012-013-036-069-073-074-212000-
CENTRAL EAST TENNESSEE

CITY           SKY/WX    TMP DP  RH WIND       PRES   REMARKS
KNOXVILLE      TSTM      79  66  64 SW9       30.12S
OAK RIDGE      FAIR      84  64  50 VRB6      30.12F
DOWNTOWN KNOXV MOSUNNY   82  68  61 CALM      30.12F
GATLINBURG     PTSUNNY   77  70  78 SW5       30.13F
MORRISTOWN     PTSUNNY   79  66  65 W9        30.13F
JACKSBORO      SUNNY     84  63  48 SW6       30.15F
$$

TNZ083-085-099-212000-
SOUTHEAST TENNESSEE

CITY           SKY/WX    TMP DP  RH WIND       PRES   REMARKS
CHATTANOOGA    FAIR      84  61  45 SE7       30.12F
DAYTON         CLEAR     82  68  61 W7        30.11F
$$

SKY/WX REPORTED AS FAIR MEANS FEW OR NO CLOUDS BELOW
12 THOUSAND FEET.





USA.gov is the U.S. government's official web portal to all federal, state and local government web resources and services.